When you browse on this site, cookies collect data to enhance your experience and personalize the content and advertising you see.
Visit our Privacy Policy to learn more. By continuing to use the site, you agree to this use of cookies and data.
  • In Portugal
  • List of Countries
  • For 7 days
  • Water Temperature
  • Satellite Maps
  • Weather Map
  • Weather Widgets
  • user-avatar
    Login

    Hourly Weather Wierzbie

    Today, 17 June, Monday

    Time Temperature Precipitation Wind Pressure Humidity
    00:00 +13°C° 0 mm 3 mps 757 mmHg 84%
    01:00 +13°C° 0 mm 3 mps 757 mmHg 81%
    02:00 +12°C° 0 mm 3 mps 757 mmHg 83%
    03:00 +12°C° 0 mm 3 mps 757 mmHg 84%
    04:00 +12°C° 0 mm 3 mps 757 mmHg 86%
    05:00 +13°C° 0 mm 3 mps 757 mmHg 83%
    06:00 +16°C° 0 mm 3 mps 757 mmHg 81%
    07:00 +17°C° 0 mm 3 mps 758 mmHg 79%
    08:00 +19°C° 0 mm 3 mps 758 mmHg 73%
    09:00 +20°C° 0 mm 3 mps 757 mmHg 68%
    10:00 +21°C° 0 mm 3 mps 757 mmHg 62%
    11:00 +22°C° 0 mm 3 mps 757 mmHg 60%
    12:00 +24°C° 0 mm 3 mps 757 mmHg 57%
    13:00 +24°C° 0 mm 3 mps 757 mmHg 55%
    14:00 +24°C° 0 mm 3 mps 757 mmHg 55%
    15:00 +24°C° 0 mm 3 mps 757 mmHg 56%
    16:00 +24°C° 0 mm 3 mps 757 mmHg 57%
    17:00 +22°C° 0 mm 3 mps 757 mmHg 63%
    18:00 +21°C° 0 mm 3 mps 757 mmHg 69%
    19:00 +20°C° 0 mm 3 mps 757 mmHg 75%
    20:00 +19°C° 0 mm 2 mps 757 mmHg 76%
    21:00 +17°C° 0 mm 2 mps 757 mmHg 77%
    22:00 +16°C° 0 mm 2 mps 757 mmHg 78%
    23:00 +15°C° 0 mm 2 mps 757 mmHg 79%

    Tomorrow, 18 June, Tuesday

    Time Temperature Precipitation Wind Pressure Humidity
    00:00 +15°C° 0 mm 2 mps 758 mmHg 80%
    01:00 +14°C° 0 mm 2 mps 758 mmHg 81%
    02:00 +14°C° 0 mm 2 mps 757 mmHg 82%
    03:00 +14°C° 0 mm 2 mps 757 mmHg 83%
    04:00 +13°C° 0 mm 2 mps 757 mmHg 84%
    05:00 +15°C° 0 mm 2 mps 757 mmHg 81%
    06:00 +16°C° 0 mm 3 mps 757 mmHg 78%
    07:00 +18°C° 0 mm 3 mps 757 mmHg 75%
    08:00 +19°C° 0 mm 3 mps 757 mmHg 70%
    09:00 +21°C° 0 mm 3 mps 757 mmHg 64%
    10:00 +22°C° 0 mm 4 mps 757 mmHg 59%
    11:00 +23°C° 0 mm 4 mps 757 mmHg 57%
    12:00 +23°C° 0 mm 4 mps 756 mmHg 56%
    13:00 +25°C° 0 mm 4 mps 756 mmHg 54%
    14:00 +25°C° 0 mm 4 mps 755 mmHg 56%
    15:00 +25°C° 0 mm 4 mps 755 mmHg 57%
    16:00 +25°C° 0 mm 4 mps 755 mmHg 58%
    17:00 +23°C° 0 mm 4 mps 754 mmHg 64%
    18:00 +22°C° 0 mm 3 mps 754 mmHg 70%
    19:00 +21°C° 0 mm 3 mps 754 mmHg 75%
    20:00 +20°C° 0 mm 3 mps 754 mmHg 77%
    21:00 +19°C° 0 mm 3 mps 754 mmHg 79%
    22:00 +18°C° 0 mm 3 mps 754 mmHg 82%
    23:00 +17°C° 0 mm 3 mps 754 mmHg 83%

    Day after tomorrow, 19 June, Wednesday

    Time Temperature Precipitation Wind Pressure Humidity
    00:00 +17°C° 0 mm 3 mps 753 mmHg 85%
    01:00 +17°C° 0 mm 3 mps 753 mmHg 86%
    02:00 +17°C° 0 mm 3 mps 753 mmHg 87%
    03:00 +16°C° 0 mm 3 mps 753 mmHg 87%
    04:00 +16°C° 0 mm 3 mps 752 mmHg 88%
    05:00 +18°C° 0 mm 3 mps 752 mmHg 85%
    06:00 +20°C° 0 mm 4 mps 752 mmHg 83%
    07:00 +21°C° 0 mm 4 mps 752 mmHg 80%
    08:00 +22°C° 0 mm 4 mps 752 mmHg 77%
    09:00 +25°C° 0 mm 4 mps 752 mmHg 75%
    10:00 +26°C° 0 mm 4 mps 751 mmHg 72%
    11:00 +26°C° 0.1 mm 4 mps 751 mmHg 71%
    12:00 +27°C° 0.1 mm 4 mps 750 mmHg 71%
    13:00 +27°C° 0.1 mm 4 mps 750 mmHg 70%
    14:00 +27°C° 0.1 mm 3 mps 750 mmHg 69%
    15:00 +27°C° 0.1 mm 2 mps 750 mmHg 68%
    16:00 +27°C° 0.1 mm 2 mps 749 mmHg 67%
    17:00 +27°C° 0 mm 2 mps 749 mmHg 70%
    18:00 +26°C° 0 mm 1 mps 749 mmHg 74%
    19:00 +25°C° 0 mm 1 mps 749 mmHg 77%
    20:00 +24°C° 0 mm 1 mps 749 mmHg 79%
    21:00 +23°C° 0 mm 2 mps 749 mmHg 82%
    22:00 +21°C° 0 mm 2 mps 749 mmHg 84%
    23:00 +21°C° 0 mm 2 mps 749 mmHg 85%

    20 June, Thursday

    Time Temperature Precipitation Wind Pressure Humidity
    00:00 +20°C° 0 mm 2 mps 749 mmHg 86%
    01:00 +20°C° 0 mm 2 mps 749 mmHg 87%
    02:00 +20°C° 0 mm 2 mps 749 mmHg 86%
    03:00 +20°C° 0 mm 2 mps 749 mmHg 85%
    04:00 +19°C° 0 mm 2 mps 749 mmHg 85%
    05:00 +21°C° 0 mm 2 mps 749 mmHg 81%
    06:00 +23°C° 0 mm 2 mps 749 mmHg 77%
    07:00 +25°C° 0 mm 2 mps 749 mmHg 73%
    08:00 +26°C° 0.2 mm 2 mps 749 mmHg 70%
    09:00 +27°C° 0.2 mm 1 mps 749 mmHg 66%
    10:00 +28°C° 0.2 mm 1 mps 750 mmHg 63%
    11:00 +29°C° 0.1 mm 1 mps 750 mmHg 58%
    12:00 +30°C° 0.1 mm 1 mps 749 mmHg 54%
    13:00 +30°C° 0.1 mm 1 mps 749 mmHg 50%
    14:00 +30°C° 0 mm 1 mps 749 mmHg 50%
    15:00 +30°C° 0 mm 1 mps 749 mmHg 49%
    16:00 +31°C° 0 mm 1 mps 749 mmHg 49%
    17:00 +29°C° 0.2 mm 1 mps 749 mmHg 57%
    18:00 +28°C° 0.2 mm 2 mps 749 mmHg 65%
    19:00 +26°C° 0.2 mm 2 mps 749 mmHg 73%
    20:00 +25°C° 0 mm 2 mps 750 mmHg 77%
    21:00 +24°C° 0 mm 2 mps 750 mmHg 81%
    22:00 +21°C° 0 mm 2 mps 750 mmHg 85%
    23:00 +21°C° 0.1 mm 2 mps 750 mmHg 87%

    21 June, Friday

    Time Temperature Precipitation Wind Pressure Humidity
    00:00 +20°C° 0.1 mm 2 mps 750 mmHg 89%
    01:00 +20°C° 0.1 mm 2 mps 750 mmHg 91%
    02:00 +19°C° 0.1 mm 2 mps 750 mmHg 92%
    03:00 +20°C° 0.1 mm 1 mps 750 mmHg 93%
    04:00 +20°C° 0.1 mm 1 mps 750 mmHg 94%
    05:00 +21°C° 0.1 mm 1 mps 750 mmHg 89%
    06:00 +23°C° 0.1 mm 1 mps 750 mmHg 84%
    07:00 +24°C° 0.1 mm 1 mps 750 mmHg 79%
    08:00 +26°C° 1.1 mm 1 mps 750 mmHg 73%
    09:00 +27°C° 1.1 mm 1 mps 750 mmHg 66%
    10:00 +29°C° 1.1 mm 1 mps 750 mmHg 59%
    11:00 +29°C° 0.4 mm 2 mps 750 mmHg 60%
    12:00 +29°C° 0.4 mm 3 mps 750 mmHg 62%
    13:00 +29°C° 0.4 mm 3 mps 750 mmHg 63%
    14:00 +28°C° 1.5 mm 4 mps 750 mmHg 67%
    15:00 +27°C° 1.5 mm 5 mps 750 mmHg 71%
    16:00 +26°C° 1.5 mm 5 mps 750 mmHg 75%
    17:00 +25°C° 0.2 mm 5 mps 750 mmHg 78%
    18:00 +23°C° 0.2 mm 4 mps 751 mmHg 82%
    19:00 +22°C° 0.2 mm 4 mps 751 mmHg 85%
    20:00 +21°C° 0 mm 3 mps 752 mmHg 88%
    21:00 +20°C° 0 mm 3 mps 752 mmHg 91%
    22:00 +19°C° 0 mm 3 mps 753 mmHg 94%
    23:00 +18°C° 0 mm 3 mps 753 mmHg 95%

    22 June, Saturday

    Time Temperature Precipitation Wind Pressure Humidity
    00:00 +17°C° 0 mm 3 mps 753 mmHg 96%
    01:00 +17°C° 0 mm 3 mps 753 mmHg 97%
    02:00 +17°C° 0 mm 3 mps 753 mmHg 97%
    03:00 +16°C° 0 mm 3 mps 754 mmHg 97%
    04:00 +16°C° 0 mm 3 mps 754 mmHg 97%
    05:00 +16°C° 0 mm 3 mps 754 mmHg 93%
    06:00 +17°C° 0 mm 4 mps 755 mmHg 89%
    07:00 +18°C° 0 mm 4 mps 755 mmHg 84%
    08:00 +19°C° 0 mm 4 mps 755 mmHg 78%
    09:00 +20°C° 0 mm 4 mps 755 mmHg 71%
    10:00 +21°C° 0 mm 4 mps 755 mmHg 65%
    11:00 +22°C° 0 mm 4 mps 755 mmHg 63%
    12:00 +22°C° 0 mm 4 mps 755 mmHg 61%
    13:00 +22°C° 0 mm 5 mps 755 mmHg 59%
    14:00 +22°C° 0 mm 5 mps 755 mmHg 61%
    15:00 +22°C° 0 mm 5 mps 755 mmHg 63%
    16:00 +22°C° 0 mm 5 mps 754 mmHg 64%
    17:00 +21°C° 0 mm 5 mps 754 mmHg 68%
    18:00 +20°C° 0 mm 5 mps 754 mmHg 71%
    19:00 +20°C° 0 mm 5 mps 754 mmHg 74%
    20:00 +19°C° 0 mm 5 mps 755 mmHg 72%
    21:00 +17°C° 0 mm 6 mps 755 mmHg 69%
    22:00 +17°C° 0 mm 6 mps 755 mmHg 66%
    23:00 +16°C° 0 mm 6 mps 755 mmHg 69%
    Show more